Regional Weather Roundup
Issued by NWS

Home | Current Version | Previous Version | Text Only | Print | Product List | Glossary Off
Versions: 1 2 3 4 5 6 7 8 9 10 11 12 13 14 15 16 17 18 19 20 21 22 23 24 25 26 27 28 29 30 31 32 33 34 35 36 37 38 39 40 41 42 43 44 45 46 47 48 49 50

000
ASUS43 KTOP 230508
RWRKS

WEATHER ROUNDUP FOR KANSAS
NATIONAL WEATHER SERVICE GOODLAND KS
1200 AM CDT THU MAR 23 2017

NOTE:  "FAIR" INDICATES FEW OR NO CLOUDS BELOW 12,000 FEET WITH NO
SIGNIFICANT WEATHER AND/OR OBSTRUCTIONS TO VISIBILITY.

KSZ001>006-013>018-027>032-041>047-230600-
NORTHWEST KANSAS

CITY           SKY/WX    TMP DP  RH WIND       PRES   REMARKS
GOODLAND       CLOUDY    46  37  71 SE24G33   29.90F
HAYS             N/A     46  36  68 SE8       30.04F
HILL CITY      CLOUDY    47  36  65 SE8       30.01F
RUSSELL        MOCLDY    49  34  56 SE10      30.03F
$$

KSZ061>065-074>080-084>089-230600-
SOUTHWEST KANSAS

CITY           SKY/WX    TMP DP  RH WIND       PRES   REMARKS
DODGE CITY     CLOUDY    47  40  76 SE14      29.99F
ELKHART          N/A     54  41  62 SE17        N/A
GARDEN CITY    CLOUDY    47  40  76 SE15      29.95F
GREAT BEND     MOCLDY    47  37  68 E10       30.04F
LIBERAL        CLEAR     54  41  62 E12       29.97F
PRATT          CLOUDY    46  39  74 E8        30.03F
$$

KSZ066>073-081>083-090>101-230600-
SOUTHEAST KANSAS

CITY           SKY/WX    TMP DP  RH WIND       PRES   REMARKS
CHANUTE        CLOUDY    55  39  54 SE12      30.13F
COFFEYVILLE    CLOUDY    56  43  61 E8        30.12F
HUTCHINSON     CLOUDY    50  38  63 E9        30.05F
MEDICINE LODGE   N/A     54  44  69 E9G18     30.02F
NEWTON         CLOUDY    50  37  61 SE14      30.07F
PARSONS        CLOUDY    56  41  57 VRB7      30.14F
WICHITA INTL   CLOUDY    54  42  64 SE13G23   30.06F
WICHITA JABRA  CLOUDY    53  41  63 SE14      30.06F
WICHITA MCCONL CLOUDY    55  41  59 SE16      30.06F
WINFIELD       CLOUDY    57  47  69 SE14G23   30.08F
$$

KSZ007>012-019>026-033>040-048>060-102>105-230600-
NORTHEAST KANSAS

CITY           SKY/WX    TMP DP  RH WIND       PRES   REMARKS
CONCORDIA      CLOUDY    52  30  43 SE8       30.09F
EMPORIA        CLOUDY    54  39  57 SE13      30.11S
LAWRENCE       CLOUDY    53  28  38 E18       30.16S
MANHATTAN      CLOUDY    54  31  41 E7        30.11F
MARYSVILLE     CLOUDY    52  30  43 SE9       30.13R
OLATHE IND     CLOUDY    51  27  39 SE16G22   30.16F
OLATHE EXE     CLOUDY    50  27  40 E13       30.17S
SALINA         MOCLDY    53  34  48 SE9       30.08S
TOPEKA BILLARD CLOUDY    53  30  41 E14       30.14F
TOPEKA FORBES  CLOUDY    53  30  41 SE10      30.13F
$$




USA.gov is the U.S. government's official web portal to all federal, state and local government web resources and services.